KCRX

Details ICAO KCRX
Name ROSCOE TURNER
Region United States
Timezone America/Chicago (UTC-5.0)
Plans Departing 1
Arriving 4
Stats Elevation 425 ft / 130 m (AMSL)
Location 34.914968° -88.603485°
Runways 1
Magnetic Variation 2.360° W
Sunrise 2018-05-24 10:46:42 UTC / 2018-05-24 05:46:42 Local
Sunset 2018-05-25 00:58:44 UTC / 2018-05-24 19:58:44 Local
Advertisement - Login to hide

Runways

ID Width Length Bearing (true) Bearing (mag) Surface Threshold Offset Overrun Length
17 100 ft / 30 m 6,517 ft / 1,987 m 173.58° 175.94° Asphalt 0 ft / 0 m 0 ft / 0 m
35 100 ft / 30 m 6,517 ft / 1,987 m 353.58° 355.94° Asphalt 0 ft / 0 m 0 ft / 0 m

Approach Navaids

Runway Type Ident Frequency Range Bearing (true) Bearing (mag) Slope Elevation
17 Localiser IUUR 111.10 MHz 18 nm / 33 km 173.58° 175.94° - 425 ft / 130 m (AMSL)
17 Glidescope IUUR 111.10 MHz 10 nm / 19 km 173.58° 175.94° 3.00° 425 ft / 130 m (AMSL)

Map

Weather


0- 5 10 15 20 25 30 35+ Temperature / ° C

Clouds and Precipitation
Forecast for 2018-05-25 00:00 UTC. Updated 5 hours ago

Ground ~20,000 ft ~40,000 ft Winds

METAR

KCRX 250335Z AUTO 27005KT 10SM 24/21 A3005 RMK AO2

TAF

Not found

Frequencies

Recorded 118.67 MHz AWOS 3
Unicom 122.80 MHz CTAF/UNICOM
Warning: Do not use this data for real-world aviation or navigation. No guarantee of current accuracy is given.